Total_Precipitation_Accumulation
0.99 0.96 1.00 1.35 1.53 1.21 1.50 2.09 2.33 2.94 2.79 1.93 1.92 1.53 1.38 1.54 1.32 0.80 0.57 0.55 0.51 0.66 0.57 0.12 0.12 0.31 0.32 0.21 0.25 0.47 0.77 0.67 0.15 0.07 0.07 0.05 0.04 0.03 0.06 0.22 0.19 0.21 0.22 0.48 0.65
0.73 0.89 0.83 0.97 1.40 1.60 1.70 1.95 1.88 2.31 3.50 2.13 1.51 1.07 1.09 0.99 0.74 0.57 0.53 0.97 0.94 0.97 0.52 0.33 0.37 0.66 0.62 0.26 0.46 0.45 0.30 0.39 0.07 0.04 0.08 0.13 0.18 0.08 0.10 0.37 0.94 0.52 0.47 0.80 1.07
0.62 0.69 0.74 0.89 1.42 1.40 1.25 1.39 1.64 2.37 3.61 2.84 1.28 0.61 0.70 0.85 0.58 0.32 0.62 0.97 1.02 1.11 0.38 0.39 0.51 0.83 0.68 0.49 0.35 0.26 0.15 0.03 0.07 0.13 0.18 0.30 0.26 0.11 0.21 0.60 1.25 1.24 0.91 0.85 1.61
0.64 0.63 0.72 0.81 1.16 1.24 0.97 1.03 1.33 1.78 3.11 3.95 1.80 0.59 0.68 0.59 0.27 0.61 1.09 0.70 0.78 1.37 0.84 0.70 0.73 0.97 0.69 0.45 0.16 0.19 0.06 0.02 0.16 0.44 0.36 0.51 0.32 0.24 0.31 0.29 0.44 0.90 1.29 1.09 1.31
0.58 0.59 0.55 0.63 0.78 0.89 1.00 0.94 0.95 1.20 2.30 3.91 1.83 0.86 0.67 0.37 0.19 0.76 1.17 0.47 0.43 0.83 0.84 0.76 0.72 0.99 0.65 0.27 0.26 0.18 0.06 0.04 0.16 0.78 0.55 0.43 0.54 0.39 0.26 0.37 0.27 0.66 1.37 1.79 1.56
0.49 0.58 0.56 0.50 0.48 0.56 0.68 0.62 0.68 1.08 2.40 3.52 1.73 1.06 0.56 0.20 0.26 0.52 0.54 0.24 0.25 0.43 0.73 0.98 0.67 0.97 0.67 0.33 0.31 0.18 0.11 0.07 0.11 0.59 0.65 0.61 0.62 0.59 0.32 0.32 0.46 0.79 1.15 1.66 2.06
0.64 0.65 0.64 0.63 0.70 0.83 0.85 0.76 0.81 1.16 3.04 3.24 1.44 1.15 0.57 0.11 0.08 0.04 0.08 0.14 0.21 0.31 0.56 0.71 0.98 1.54 1.25 0.60 0.22 0.19 0.22 0.27 0.14 0.19 0.59 0.81 0.76 0.65 0.41 0.31 0.55 0.88 1.27 1.76 1.80
0.75 0.88 0.81 0.80 0.80 1.03 1.25 1.48 1.28 1.48 2.89 2.41 1.78 1.52 0.53 0.06 0.02 0.01 0.04 0.15 0.20 0.43 0.83 1.16 1.27 1.44 1.59 1.12 0.40 0.48 0.44 0.38 0.14 0.09 0.24 0.97 1.00 0.83 0.65 0.57 0.55 0.63 1.31 1.61 2.06
0.71 0.82 1.05 1.44 1.47 1.46 1.72 1.87 1.68 2.34 2.87 2.44 1.96 1.28 0.44 0.08 0.06 0.01 0.04 0.16 0.27 0.51 0.91 1.45 1.63 1.79 1.48 1.86 1.29 0.86 0.57 0.14 0.11 0.11 0.17 0.55 0.85 0.93 0.96 0.86 0.66 0.62 0.67 1.80 2.18
0.83 0.84 1.10 1.34 1.29 1.22 1.47 1.87 2.20 2.66 2.62 2.32 1.82 1.31 0.37 0.05 0.05 0.06 0.10 0.24 0.35 0.76 1.53 1.87 2.03 1.92 1.84 2.07 1.68 0.76 0.57 0.19 0.13 0.17 0.26 0.25 0.52 0.88 1.24 1.06 0.88 0.70 0.59 0.81 1.68
1.09 1.08 1.08 1.12 1.19 1.46 1.96 2.39 2.45 2.92 2.53 1.62 1.13 0.33 0.14 0.08 0.17 0.24 0.19 0.32 0.57 1.44 1.61 2.11 2.83 2.23 1.28 0.85 0.86 0.66 0.58 0.40 0.10 0.17 0.20 0.10 0.16 0.53 1.22 1.25 0.90 0.78 0.49 0.59 0.68
0.95 1.04 1.10 1.22 1.48 1.91 2.58 2.14 1.45 1.41 1.69 0.95 0.46 0.16 0.30 0.34 0.42 0.66 0.34 0.58 0.84 1.31 1.30 2.31 2.12 1.03 0.62 0.69 1.07 0.85 0.55 0.30 0.14 0.20 0.39 0.22 0.30 0.32 0.85 1.37 1.25 1.00 0.46 0.33 0.40
1.31 1.54 1.98 1.65 1.74 2.07 2.01 2.09 1.21 1.11 1.97 1.07 0.52 0.50 0.47 0.75 0.55 1.06 0.56 0.58 0.50 1.28 1.19 1.58 1.11 1.04 1.34 1.42 1.37 0.86 0.67 0.37 0.29 0.39 0.47 0.29 0.42 0.38 0.58 1.05 1.09 1.06 0.70 0.35 0.26
1.57 1.94 2.95 2.07 2.27 1.87 2.20 2.14 1.53 1.96 2.65 1.19 0.95 1.00 0.92 1.30 0.90 0.84 0.66 0.72 0.74 1.27 0.91 1.23 0.89 1.12 1.90 1.86 1.53 1.07 0.43 0.57 0.63 1.31 1.32 0.77 1.01 0.51 0.32 0.57 0.69 0.78 0.66 0.40 0.31
1.25 1.54 2.09 2.57 2.90 2.53 2.29 2.29 2.16 2.63 2.50 1.33 1.21 1.25 1.30 1.38 1.15 1.00 0.83 1.03 1.08 1.43 1.30 1.51 0.96 0.88 1.67 1.42 1.70 1.43 0.76 0.54 0.96 1.56 1.40 0.78 1.34 0.71 0.25 0.35 0.47 0.66 0.69 0.47 0.29
1.14 1.34 1.77 2.79 2.64 2.07 1.98 2.29 3.13 3.14 2.38 1.73 1.59 1.97 1.55 1.40 1.16 1.44 1.14 1.31 1.55 1.69 1.56 1.08 0.88 1.45 1.29 1.10 1.83 1.30 1.01 1.08 1.63 2.60 3.05 0.57 0.96 1.20 0.78 0.62 0.51 0.55 0.85 0.58 0.40
1.12 1.40 1.75 1.90 2.12 1.82 2.24 2.94 3.17 2.14 1.61 1.63 1.56 1.64 1.66 1.43 1.19 1.18 1.43 1.79 2.45 2.18 2.25 2.04 2.25 1.83 1.50 1.88 2.09 2.61 2.67 3.91 4.76 4.13 2.13 0.77 1.14 1.24 1.00 0.84 0.87 0.64 0.92 0.70 0.46
1.37 1.51 1.68 1.29 1.91 2.18 2.60 2.94 1.93 1.09 1.35 1.48 1.33 1.48 1.58 1.27 1.39 1.05 1.58 1.73 1.33 1.02 1.95 2.21 2.54 2.44 1.89 2.03 2.54 2.41 2.96 2.78 2.32 1.66 0.78 0.71 1.67 1.30 1.19 0.84 0.75 0.58 0.91 0.75 0.52
1.86 1.56 1.96 1.52 1.92 2.58 2.58 2.36 1.23 1.35 1.46 1.87 1.75 1.95 1.46 1.04 1.24 1.37 1.52 1.11 0.90 0.68 1.62 1.15 1.72 1.43 1.38 1.55 2.08 2.47 2.52 1.95 1.64 0.99 1.07 1.58 1.55 1.20 1.11 1.14 0.92 0.74 0.85 0.89 0.54
1.69 2.02 2.19 1.40 1.96 3.00 2.90 1.74 1.29 1.36 1.61 1.33 1.40 0.83 0.78 0.81 0.97 1.07 1.17 0.61 0.40 0.22 0.53 0.91 1.59 1.41 1.31 1.85 2.01 1.95 1.73 2.18 3.29 2.20 2.12 1.67 1.17 1.65 1.37 1.40 1.33 1.07 1.23 1.14 0.69
1.51 2.01 1.92 1.61 2.68 3.70 2.70 1.69 1.38 1.06 1.11 0.80 0.26 0.24 0.21 0.37 0.46 0.77 0.92 0.61 0.12 0.07 0.22 0.70 1.59 1.64 1.81 2.24 2.07 1.85 2.16 1.96 2.17 1.64 1.51 1.49 1.96 2.24 2.00 2.11 1.98 1.84 1.81 1.86 1.45
1.47 2.04 1.73 2.21 3.35 2.68 1.76 1.44 1.49 0.95 0.65 0.55 0.26 0.26 0.25 0.25 0.32 0.73 0.83 0.37 0.11 0.04 0.17 0.52 1.41 1.63 1.64 0.91 0.77 1.14 1.32 1.49 2.59 2.08 1.64 1.50 1.65 1.52 1.82 2.48 2.55 2.23 2.26 2.43 1.70
1.53 1.88 2.48 1.68 1.71 1.21 1.14 1.18 1.22 0.71 0.56 0.62 0.35 0.25 0.22 0.22 0.37 0.29 0.67 0.18 0.02 0.05 0.48 0.77 1.48 1.59 1.50 1.17 0.89 1.44 1.20 1.34 1.73 2.43 2.29 2.14 1.92 1.29 1.34 1.71 2.73 2.52 2.31 2.21 1.97
1.68 2.26 3.00 2.61 0.89 0.85 1.35 1.45 1.09 0.60 0.50 0.63 0.40 0.28 0.26 0.14 0.11 0.21 0.75 0.23 0.04 0.09 0.23 0.88 1.36 1.43 1.41 1.22 1.16 1.38 0.89 1.20 2.11 2.34 1.66 1.94 1.30 1.00 0.97 1.31 2.12 2.18 2.08 2.14 2.11
1.56 1.36 1.00 0.89 0.70 0.47 0.99 1.17 0.90 0.87 0.57 0.71 0.61 0.40 0.65 0.45 0.15 0.08 0.53 0.44 0.19 0.16 0.15 0.74 1.56 1.08 0.70 0.47 0.60 0.84 0.83 0.81 1.59 1.32 1.50 1.13 0.76 0.78 0.83 1.31 1.93 2.17 2.16 2.05 2.33
1.17 1.42 0.73 0.29 0.25 0.33 0.79 0.94 0.76 0.70 0.72 0.55 0.54 0.30 0.37 0.45 0.59 0.39 0.31 0.48 0.44 0.13 0.27 0.53 1.08 0.87 0.74 0.28 0.41 0.56 0.63 0.47 0.83 0.76 0.84 0.59 0.61 0.48 0.52 0.74 1.21 1.67 1.90 2.38 2.93
1.09 1.12 1.18 0.68 0.35 0.65 0.60 0.61 0.71 0.69 0.46 0.24 0.36 0.49 0.32 0.20 0.17 0.08 0.08 0.10 0.20 0.28 0.30 0.49 0.81 1.03 0.90 0.49 0.31 0.65 0.77 0.85 0.79 0.59 0.64 0.72 0.61 0.29 0.34 0.54 0.77 1.16 1.46 1.48 1.44